Weather reports worldwide

Advertisment
Bedford, United Kingdom (3560): temperature & dewpoint: 19.11.2017 09:00:00 - 25.11.2017 09:00:00 (GMT)Bedford, United Kingdom (3560): wind speed & gusts: 19.11.2017 09:00:00 - 25.11.2017 09:00:00 (GMT)Bedford, United Kingdom (3560): wind direction: 19.11.2017 09:00:00 - 25.11.2017 09:00:00 (GMT)Bedford, United Kingdom (3560): reduced air pressure: 19.11.2017 09:00:00 - 25.11.2017 09:00:00 (GMT)Bedford, United Kingdom (3560): visibility: 19.11.2017 09:00:00 - 25.11.2017 09:00:00 (GMT)Bedford, United Kingdom (3560): precipitation: 19.11.2017 09:00:00 - 25.11.2017 09:00:00 (GMT)
Date & Time tt [°C] td [°C] ff [km/h] ff [kn] fx [km/h] fx [kn] dd ppp [hPa] vv [km] rr [mm]
25.11.2017 09:00:00 0,9 -0,3 15 8 - - W 1014,4 40 0,0
25.11.2017 08:00:00 -0,3 -1,0 13 7 - - WSW 1013,8 30 0,0
25.11.2017 07:00:00 -0,1 -0,9 11 6 - - WSW 1013,2 40 0,0
25.11.2017 06:00:00 0,4 -0,2 11 6 - - WSW 1012,7 45 0,0
25.11.2017 05:00:00 0,0 -0,8 11 6 - - W 1012,5 50 0,0
25.11.2017 04:00:00 0,2 -0,9 15 8 - - W 1012,3 40 0,0
25.11.2017 03:00:00 0,1 -1,1 11 6 - - W 1012,4 40 0,0
25.11.2017 02:00:00 -0,4 -1,7 13 7 - - W 1012,4 30 0,0
25.11.2017 01:00:00 -0,7 -1,8 11 6 - - WSW 1012,5 25 0,0
25.11.2017 00:00:00 0,0 -1,4 11 6 - - WSW 1012,5 28 0,0
24.11.2017 23:00:00 0,5 -1,3 8 4 - - WSW 1012,6 40 0,0
24.11.2017 22:00:00 0,2 -1,4 8 4 - - WSW 1012,7 30 0,0
24.11.2017 21:00:00 1,1 -0,8 9 5 - - WSW 1012,7 30 0,0
24.11.2017 20:00:00 2,4 -0,1 9 5 - - SW 1012,8 30 0,0
24.11.2017 19:00:00 2,7 0,0 9 5 - - WSW 1012,6 50 0,0
24.11.2017 18:00:00 3,5 0,5 9 5 - - SW 1012,4 50 0,0
24.11.2017 17:00:00 3,8 1,0 5 3 - - SW 1012,2 40 0,0
24.11.2017 16:00:00 5,0 0,9 5 3 - - WSW 1012,2 50 0,0
24.11.2017 15:00:00 6,4 1,1 9 5 - - WSW 1012,0 50 0,0
24.11.2017 14:00:00 6,9 1,5 9 5 - - W 1011,6 30 0,0
24.11.2017 13:00:00 6,5 0,9 11 6 - - W 1011,6 45 0,0
24.11.2017 12:00:00 6,3 1,2 11 6 - - WNW 1011,6 50 0,0
24.11.2017 11:00:00 5,8 1,5 11 6 - - W 1011,5 45 0,0
24.11.2017 10:00:00 5,0 2,2 9 5 - - W 1011,2 22 0,0
24.11.2017 09:00:00 3,2 2,1 9 5 - - W 1010,3 24 0,0
24.11.2017 08:00:00 2,5 1,1 9 5 - - WNW 1009,8 29 -
24.11.2017 07:00:00 3,1 1,5 9 5 - - W 1009,0 40 0,0
24.11.2017 06:00:00 3,4 2,7 11 6 - - W 1008,1 15 -
24.11.2017 05:00:00 4,3 3,9 9 5 - - WSW 1007,4 15 0,0
24.11.2017 04:00:00 4,5 3,9 8 4 - - W 1006,9 15 0,0
24.11.2017 03:00:00 5,0 4,3 8 4 - - W 1006,2 19 0,0
24.11.2017 02:00:00 5,5 4,6 8 4 - - WSW 1005,9 35 0,0
24.11.2017 01:00:00 5,3 4,7 8 4 - - SW 1005,7 23 0,0
24.11.2017 00:00:00 5,4 4,5 4 2 - - SW 1005,9 29 0,0
23.11.2017 23:00:00 5,8 4,6 9 5 - - SW 1005,7 29 0,0
23.11.2017 22:00:00 6,2 4,6 11 6 - - WSW 1005,9 30 0,0
23.11.2017 21:00:00 6,7 4,4 11 6 - - WSW 1005,4 45 0,0
23.11.2017 20:00:00 6,8 4,6 13 7 - - WSW 1005,4 40 0,0
23.11.2017 19:00:00 6,7 4,7 11 6 - - SW 1004,7 30 0,0
23.11.2017 18:00:00 6,7 4,6 13 7 - - SW 1003,8 30 0,0
23.11.2017 17:00:00 7,6 4,4 16 9 - - WSW 1002,6 35 0,0
23.11.2017 16:00:00 8,5 5,1 22 12 54 29 SW 1001,0 40 0,0
23.11.2017 15:00:00 9,9 4,1 31 17 61 33 WSW 999,6 15 0,0
23.11.2017 14:00:00 10,1 3,6 31 17 63 34 WSW 998,1 35 0,0
23.11.2017 13:00:00 9,7 3,7 31 17 57 31 SW 997,5 40 0,0
23.11.2017 12:00:00 9,1 3,6 28 15 61 33 WSW 997,1 35 0,0
23.11.2017 11:00:00 8,4 2,9 24 13 - - SW 996,6 45 0,0
23.11.2017 10:00:00 7,5 2,2 21 11 - - SW 995,9 45 0,0
23.11.2017 09:00:00 6,8 2,3 18 10 57 31 WSW 994,4 45 0,0
23.11.2017 08:00:00 7,5 3,4 31 17 57 31 W 992,1 50 0,0
23.11.2017 07:00:00 9,8 7,6 34 18 57 31 W 989,2 50 0,8
23.11.2017 06:00:00 11,7 9,8 26 14 - - SW 986,6 50 0,0
23.11.2017 05:00:00 12,1 10,2 24 13 - - SW 985,3 45 0,0
23.11.2017 04:00:00 12,0 10,9 22 12 - - SSW 984,5 50 1,2
23.11.2017 03:00:00 11,8 10,8 28 15 50 27 SSW 984,7 11 0,2
23.11.2017 02:00:00 12,3 11,4 29 16 68 37 SSW 985,1 20 9,8
23.11.2017 01:00:00 13,7 10,7 34 18 67 36 SSW 984,7 14 -
23.11.2017 00:00:00 13,3 11,1 42 23 67 36 SSW 985,3 12 1,6
22.11.2017 23:00:00 13,5 10,9 42 23 72 39 SSW 985,8 8 0,0
22.11.2017 22:00:00 13,5 9,9 35 19 65 35 S 986,6 35 0,0
22.11.2017 21:00:00 14,2 8,8 42 23 65 35 SSW 987,3 40 0,0
22.11.2017 20:00:00 14,3 8,5 46 25 65 35 SSW 987,8 40 0,0
22.11.2017 19:00:00 12,8 7,5 37 20 63 34 S 989,0 50 0,0
22.11.2017 18:00:00 13,3 8,0 39 21 59 32 S 989,7 45 0,0
22.11.2017 17:00:00 14,0 9,9 39 21 63 34 SSW 991,2 30 0,0
22.11.2017 16:00:00 13,6 10,4 41 22 63 34 SSW 991,9 25 0,0
22.11.2017 15:00:00 13,8 10,3 35 19 61 33 SSW 992,9 30 0,0
22.11.2017 14:00:00 13,8 10,0 34 18 63 34 SSW 993,9 30 0,0
22.11.2017 13:00:00 13,8 10,2 41 22 55 30 SSW 994,7 30 0,0
22.11.2017 12:00:00 13,7 10,2 35 19 63 34 SSW 995,7 30 0,0
22.11.2017 11:00:00 14,3 10,5 41 22 63 34 SSW 996,5 29 0,0
22.11.2017 10:00:00 13,7 10,7 35 19 54 29 SSW 997,4 25 0,0
22.11.2017 09:00:00 13,3 10,5 31 17 48 26 SSW 997,5 25 0,0
22.11.2017 08:00:00 13,1 10,3 28 15 50 27 SSW 998,2 29 0,0
22.11.2017 07:00:00 12,4 9,8 28 15 54 29 SSW 998,6 26 0,0
22.11.2017 06:00:00 12,5 9,5 24 13 46 25 SW 998,8 35 0,0
22.11.2017 05:00:00 12,7 9,8 29 16 48 26 SW 999,6 28 0,0
22.11.2017 04:00:00 13,3 11,3 29 16 46 25 SW 1000,0 23 0,0
22.11.2017 03:00:00 13,1 11,4 24 13 - - SW 1000,5 50 0,0
22.11.2017 02:00:00 13,0 11,3 28 15 48 26 SW 1000,9 40 0,0
22.11.2017 01:00:00 13,0 11,1 26 14 46 25 SW 1001,3 35 0,0
22.11.2017 00:00:00 13,2 11,3 24 13 - - SW 1002,4 30 0,0
21.11.2017 23:00:00 13,2 11,1 26 14 50 27 SW 1002,5 45 -
21.11.2017 22:00:00 13,0 11,0 28 15 - - SW 1002,7 40 0,0
21.11.2017 21:00:00 13,0 10,7 24 13 48 26 SW 1003,1 35 0,0
21.11.2017 20:00:00 12,7 10,7 29 16 46 25 SW 1003,2 29 0,0
21.11.2017 19:00:00 12,2 10,4 24 13 - - SSW 1004,2 23 0,2
21.11.2017 18:00:00 11,8 10,3 21 11 - - SSW 1005,2 20 0,2
21.11.2017 17:00:00 11,8 9,5 18 10 - - SSW 1005,9 45 0,0
21.11.2017 16:00:00 11,9 9,0 21 11 - - SW 1006,3 45 0,0
21.11.2017 15:00:00 11,7 8,6 22 12 - - SW 1006,8 45 -
21.11.2017 14:00:00 11,9 9,1 21 11 - - SW 1007,5 35 0,0
21.11.2017 13:00:00 11,8 9,1 22 12 - - SW 1008,5 35 0,0
21.11.2017 12:00:00 11,5 9,5 24 13 - - WSW 1009,3 50 0,0
21.11.2017 11:00:00 11,2 9,8 21 11 - - WSW 1009,9 21 0,0
21.11.2017 10:00:00 11,1 9,8 24 13 - - SW 1010,0 24 -
21.11.2017 09:00:00 11,3 9,9 21 11 - - SW 1010,0 25 0,0
21.11.2017 08:00:00 11,4 10,2 18 10 - - SW 1009,8 26 0,0
21.11.2017 07:00:00 11,6 10,4 16 9 - - SW 1009,8 24 0,0
21.11.2017 06:00:00 11,9 10,6 21 11 - - WSW 1009,8 25 0,0
21.11.2017 05:00:00 11,9 10,9 24 13 - - WSW 1009,7 40 0,0
21.11.2017 04:00:00 12,0 11,0 21 11 - - SW 1010,0 40 0,0
21.11.2017 03:00:00 12,0 11,1 16 9 - - SW 1010,3 30 0,0
21.11.2017 02:00:00 12,1 11,3 15 8 - - WSW 1010,8 28 0,0
21.11.2017 01:00:00 11,9 11,1 16 9 - - WSW 1011,1 27 0,0
21.11.2017 00:00:00 11,9 11,3 13 7 - - SW 1011,4 13 0,0
20.11.2017 23:00:00 11,7 11,5 11 6 - - WSW 1011,5 5 0,2
20.11.2017 22:00:00 11,8 11,5 11 6 - - WSW 1011,7 1,5 0,2
20.11.2017 21:00:00 11,6 11,4 9 5 - - SW 1011,7 7 0,0
20.11.2017 20:00:00 11,4 11,1 11 6 - - SW 1012,0 6 0,0
20.11.2017 19:00:00 11,4 11,0 16 9 - - WSW 1011,5 13 0,0
20.11.2017 18:00:00 11,2 10,8 11 6 - - WSW 1011,5 17 0,0
20.11.2017 17:00:00 11,3 10,8 15 8 - - WSW 1011,1 22 0,0
20.11.2017 16:00:00 11,2 10,7 16 9 - - WSW 1010,9 35 -
20.11.2017 15:00:00 11,0 10,5 22 12 - - SW 1011,2 3,3 0,2
20.11.2017 14:00:00 10,9 10,1 24 13 50 27 WSW 1011,6 5 0,2
20.11.2017 13:00:00 10,9 10,1 21 11 46 25 SW 1012,0 7 0,0
20.11.2017 12:00:00 11,2 9,6 26 14 46 25 WSW 1012,3 40 0,0
20.11.2017 11:00:00 10,9 9,3 22 12 - - WSW 1013,2 45 0,0
20.11.2017 10:00:00 10,4 9,0 24 13 - - WSW 1013,6 40 0,0
20.11.2017 09:00:00 9,6 8,3 22 12 - - WSW 1013,7 25 0,0
20.11.2017 08:00:00 9,1 8,0 18 10 - - SW 1014,0 25 0,0
20.11.2017 07:00:00 8,7 7,8 21 11 - - SSW 1014,8 14 0,0
20.11.2017 06:00:00 8,1 7,7 16 9 - - SSW 1015,5 10 -
20.11.2017 05:00:00 7,9 7,4 16 9 - - SW 1016,6 6 0,6
20.11.2017 04:00:00 7,3 6,7 11 6 - - SW 1017,3 16 0,0
20.11.2017 03:00:00 6,5 5,9 13 7 - - SW 1018,2 10 0,2
20.11.2017 02:00:00 6,4 4,4 16 9 - - SSW 1018,7 50 0,0
20.11.2017 01:00:00 5,9 3,4 13 7 - - SSW 1020,0 50 0,0
20.11.2017 00:00:00 5,5 3,0 13 7 - - SSW 1021,1 45 0,0
19.11.2017 23:00:00 5,1 2,9 11 6 - - SW 1022,0 30 0,0
19.11.2017 22:00:00 4,5 2,4 8 4 - - SSW 1022,5 30 0,0
19.11.2017 21:00:00 4,7 2,2 4 2 - - WSW 1023,1 40 0,0
19.11.2017 20:00:00 5,0 2,4 8 4 - - SW 1023,2 45 0,0
19.11.2017 19:00:00 5,2 2,4 8 4 - - SW 1023,2 40 0,0
19.11.2017 18:00:00 5,2 1,9 5 3 - - SW 1023,2 50 0,0
19.11.2017 17:00:00 5,5 1,0 8 4 - - WSW 1023,5 20 0,0
19.11.2017 16:00:00 5,5 0,6 5 3 - - W 1023,7 50 0,0
19.11.2017 15:00:00 5,9 0,8 8 4 - - W 1023,6 35 0,0
19.11.2017 14:00:00 5,7 0,2 11 6 - - W 1023,8 40 0,0
19.11.2017 13:00:00 6,9 -0,1 5 3 - - WNW 1023,9 40 0,0
19.11.2017 12:00:00 6,2 0,6 11 6 - - WSW 1024,1 30 0,0
19.11.2017 11:00:00 5,1 0,3 9 5 - - WNW 1024,2 40 0,0
19.11.2017 10:00:00 3,2 0,3 9 5 - - W 1023,9 50 0,0
19.11.2017 09:00:00 1,6 -0,7 11 6 - - W 1023,9 50 0,0

tt = temperature
td = dewpoint
ff = wind speed
fx = gusts
dd = wind direction
ppp = reduced air pressure
vv = visibility
rr = precipitation

Next stations